BREEZE-M DEB (TANK), 41193

Orbit data source: Space-Track

BREEZE-M DEB (TANK), 41193 is space debris in HEO originally from a launch on Thu, 24 Dec 2015 UTC launched from the Tyuratam Missile And Space Complex (TTMTR). Debris objects in space refer to the collection of defunct objects orbiting the Earth. Examples of debris include non-operational satellites, rocket bodies, and fragments generated from explosions, collisions, or faulty payload assembly.

Loading next visibility...
Identifier
41193, 2015-082C
Orbit
HEO
Country
Flag of CISCIS
Related business
Manufacturer
Khrunichev
Mission
Spacecraft
Bus & Motor
BRIZ TANK, Unknown motor
Mass
~1,000 kg wet, 1,000 kg dry
Launch date (UTC)
2015-12-24 (10 years ago)
Launch vehicle
Unknown
Launch site
Tyuratam Missile And Space Complex (TTMTR)
Object type
Payload
Rocket body
Debris
Shape & HBR
Torus, 2.0 m
Radar Cross Section
8.218 m², Large (>1 m²)

Expand to show TLE details & history
Last TLE update: 2 days ago

TLE from 2 days ago
0 BREEZE-M DEB (TANK)
1 41193U 15082C   26171.14869688  .00002696  00000-0  52649-3 0  9993
2 41193  49.5806  27.0293 5208552 317.8883  12.0783  5.27149558197789
Epoch: 2026-06-20T03:34Z
TLE epoch observation values (Epoch: 2026-06-20T03:34:07.410Z)
Latitude
-0.00011°
Longitude
65.14096°
Altitude
961.037 km
Speed
8.947 km/s
True Right ascension
01h 48m 09s
True Declination
0° 00' 00"
Sunlit
Object was in daylight at epoch
Visualization orbit readout
Latitude
Unknown
Longitude
Unknown
Altitude
Unknown
Speed
Unknown
Apparent Right ascension
Unknown
Apparent Declination
Unknown
Sunlit
N/A
Visualization observer readout
Local Sidereal Time
21:28:49
Azimuth
Unknown
Elevation
Unknown
Doppler factor
Unknown
Orbital elements
Apogee altitude
14,832.549 km
Perigee altitude
304.281 km
Semi-major axis
13,946.552 km
Eccentricity
0.52086
Inclination
49.5806°
RAAN
27.0293°
Arg. of periapsis
317.8883°
True anomaly
42.15302°
Mean anomaly
12.0783°
Eccentric anomaly
24.41235°
Mean motion
1.31778 °/min
Orbital period
273.19 mins
BSTAR
0.00052649
Loading maneuver chart data...
Computing Atmospheric mass density...
Loading historical data...
Loading historical data...
Loading historical data...
Loading historical data...
Loading historical data...
Loading historical data...
Loading historical data...
Other satellites on launch #82 in the year 2015 (2015-12-24 UTC)

Documentation

Showing up to 5 results
|